sat.trackr.live / text

‹ back to catalog

STARLINK-31820

NORAD 59725 · 2024-088T

PAYLOAD ACTIVE UNKNOWN

§ Identity

Operator
Country
US
Launch date
2024-05-10
Launch site
AFWTR
Launch vehicle
Mass (kg)
RCS (m²)

Purposes: comms

External: N2YO · Heavens-Above · Gunter

§ Orbital elements

Epoch: 2026-05-24T17:12:29.949984Z

Period
94.01 min
Inclination
53.1599°
Eccentricity
0.0001191
Mean motion
15.31699015 rev/d
Perigee alt
469.9 km
Apogee alt
471.6 km
Semi-major
6,848.9 km
B*
2.4476e-5
RAAN
146.6751°
Arg perigee
90.2144°
Mean anomaly
269.8994°
Rev number
11,532

§ Raw data

STARLINK-318201 59725U 24088T   26144.71701331  .00000394  00000+0  24476-4 0  99922 59725  53.1599 146.6751 0001191  90.2144 269.8994 15.31699015115323

JSON: /api/v1/satellites/59725 · /tle

For live sub-satellite position, see the globe view (requires WebGL).

§ Visibility from observer

Set your observer location to see the next 7 days of passes ≥ 10°. The values pass through the URL so the page stays shareable.

No JS? Fill the form by hand. The geolocation button needs JavaScript.